EHI
0 0 0 0 0 0 0 0 0 0 0 0 0 0 0 0 0 0 0 0 0 0 1 2 3 2 1 0 0 0 0 0 0 0 0 0 0 0 0 0 0 0 0 0 0 0 0 0 0
0 0 0 0 0 0 0 0 0 0 0 0 0 0 0 0 0 0 0 0 0 0 1 2 3 3 1 0 0 0 0 0 0 0 0 0 0 0 0 0 0 0 0 0 0 0 0 0 0
0 0 0 0 0 0 0 0 0 0 0 0 0 0 0 0 0 0 0 0 0 0 1 3 5 5 3 1 0 0 0 0 0 0 0 0 0 0 0 0 0 0 0 0 0 0 0 0 0
0 0 0 0 0 0 0 0 0 0 0 0 0 0 0 0 0 0 0 0 0 0 1 4 6 7 5 2 1 1 1 0 0 0 0 0 0 0 0 0 0 0 0 0 0 0 0 0 0
0 0 0 0 0 0 0 0 0 0 0 0 0 0 0 0 0 0 0 0 0 1 2 4 7 7 6 4 3 2 2 1 0 0 0 0 0 0 0 0 0 0 0 0 0 0 0 0 0
0 0 0 0 0 0 0 0 0 0 0 0 0 0 0 0 0 0 0 0 0 1 2 4 5 5 5 4 3 3 2 1 0 0 0 1 0 0 0 0 0 0 0 0 0 0 0 0 0
0 0 0 0 0 0 0 0 0 0 0 0 0 0 0 0 0 0 0 0 0 1 1 1 2 2 2 3 3 1 1 0 0 0 0 0 0 0 0 0 0 0 0 0 0 0 0 0 0
0 0 0 0 0 0 0 0 0 0 0 0 0 0 0 0 0 0 0 0 0 0 0 0 0 0 0 1 1 1 0 0 0 0 0 0 0 0 0 0 0 0 0 0 0 0 0 0 0
0 0 0 0 0 0 0 0 0 0 0 0 0 0 0 0 0 0 0 0 0 0 0 0 0 0 0 0 0 0 0 0 0 0 0 0 0 0 0 0 0 0 0 0 0 0 0 0 0
0 0 0 0 0 0 0 0 0 0 0 0 0 0 0 0 0 0 0 0 0 0 0 0 0 1 1 1 1 1 0 0 0 0 0 0 0 0 0 0 0 0 0 0 0 0 0 0 0
0 0 0 0 0 0 0 0 0 0 0 0 0 0 0 0 0 0 0 0 0 0 0 0 1 2 2 2 2 2 1 0 0 0 0 0 0 0 0 0 0 0 0 0 0 0 0 0 0
0 0 0 0 0 0 0 0 0 0 0 0 0 0 0 0 0 0 0 0 0 0 1 1 2 2 3 3 3 2 1 0 0 0 0 0 0 0 0 0 0 0 0 0 0 0 0 0 0
0 0 0 0 0 0 0 0 0 0 0 0 0 0 0 0 0 0 0 0 0 0 1 2 2 2 2 2 2 1 1 0 0 0 0 0 0 0 0 0 0 0 0 0 0 0 0 0 0
0 0 0 0 0 0 0 0 0 0 0 0 0 0 0 0 0 0 0 0 0 0 0 1 1 1 0 1 1 0 0 0 0 0 0 0 0 0 0 0 0 0 0 0 0 0 0 0 0
0 0 0 0 0 0 0 0 0 0 0 0 0 0 0 0 0 0 0 0 0 0 0 0 0 0 0 0 0 0 0 0 0 0 0 0 0 0 0 0 0 0 0 0 0 0 0 0 0
0 0 0 0 0 0 0 0 0 0 0 0 0 0 0 0 0 0 0 0 0 0 0 0 0 0 0 0 0 0 0 0 0 0 0 0 0 0 0 0 0 0 0 0 0 0 0 0 0
0 0 0 0 0 0 0 0 0 0 0 0 0 0 0 0 0 0 0 0 0 0 0 0 0 0 0 0 1 0 0 0 0 0 0 0 0 0 0 0 0 0 0 0 0 0 0 0 0
0 0 0 0 0 0 0 0 0 0 0 0 0 0 0 0 0 0 0 0 0 0 0 0 0 0 0 0 0 0 0 0 0 0 0 0 0 0 0 0 0 0 0 0 0 0 0 0 0
0 0 0 0 0 0 0 0 0 0 0 0 0 0 0 0 0 0 0 0 0 0 0 0 0 0 0 0 0 0 0 0 0 0 0 0 0 0 0 0 0 0 0 0 0 0 0 0 0
0 0 0 0 0 0 0 0 0 0 0 0 0 0 0 0 0 0 0 0 0 0 0 0 0 0 0 0 0 0 0 0 0 0 0 0 0 0 0 0 0 0 0 0 0 0 0 0 0
0 0 0 0 0 0 0 0 0 0 0 0 0 0 0 0 0 0 0 0 0 0 0 0 0 0 0 0 0 0 0 0 0 0 0 0 0 0 0 0 0 0 0 0 0 0 0 0 0
0 0 0 0 0 0 0 0 0 0 0 0 0 0 0 0 0 0 0 0 0 0 0 0 0 0 0 0 0 0 0 0 0 0 0 0 0 0 0 0 0 0 0 0 0 0 0 0 0
0 0 0 0 0 0 0 0 0 0 0 0 0 0 0 0 0 0 0 0 0 0 0 0 0 0 0 0 0 0 0 0 0 0 0 0 0 0 0 0 0 0 0 0 0 0 0 0 0
0 0 0 0 0 0 0 0 0 0 0 0 0 0 0 0 0 0 0 0 0 0 0 0 0 0 0 0 0 0 0 0 0 0 0 0 0 0 0 0 0 0 0 0 0 0 0 0 0
0 0 0 0 0 0 0 0 0 0 0 0 0 0 0 0 0 0 0 0 0 0 0 0 0 0 0 0 0 0 0 0 0 0 0 0 0 0 0 0 0 0 0 0 0 0 0 0 0
0 0 0 0 0 0 0 0 0 0 0 0 0 0 0 0 0 0 0 0 0 0 0 0 0 0 0 0 0 0 0 0 0 0 0 0 0 0 0 0 0 0 0 0 0 0 0 0 0
0 0 0 0 0 0 0 0 0 0 0 0 0 0 0 0 0 0 0 0 0 0 0 0 0 0 0 0 0 0 0 0 0 0 0 0 0 0 0 0 0 0 0 0 0 0 0 0 0
0 0 0 0 0 0 0 0 0 0 0 0 0 0 0 0 0 0 0 0 0 0 0 0 0 0 0 0 0 0 0 0 0 0 0 0 0 0 0 0 0 0 0 0 0 0 0 0 0
0 0 0 0 0 0 0 0 0 0 0 0 0 0 0 0 0 0 0 0 0 0 0 0 0 0 0 0 0 0 0 0 0 0 0 0 0 0 0 0 0 0 0 0 0 0 0 0 0
0 0 0 0 0 0 0 0 0 0 0 0 0 0 0 0 0 0 0 0 0 0 0 0 0 0 0 0 0 0 0 0 0 0 0 0 0 0 0 0 0 0 0 0 0 0 0 0 0
Wind_Speed
1 0 2 3 4 5 6 4 3 4 3 1 1 1 1 0 2 3 5 3 4 5 5 4 4 5 7 7 8 8 8 7 7 7 8 8 8 8 8 9 9 9 9 10 10 11 11 11 11
0 1 3 3 6 7 6 5 6 3 2 3 2 1 1 2 4 4 3 3 4 5 4 4 5 6 7 7 7 7 7 7 7 7 8 8 8 8 8 8 8 8 9 9 10 10 10 10 11
2 1 3 4 6 7 4 3 4 3 3 3 2 0 1 2 3 3 3 3 5 5 4 5 6 7 7 8 8 7 7 8 7 8 8 8 8 8 8 8 8 8 8 9 9 9 9 10 10
3 3 2 5 8 6 4 2 3 5 4 2 2 3 3 4 2 2 3 4 5 5 4 6 6 7 7 8 8 7 7 8 8 8 8 8 8 8 8 8 8 8 7 8 8 8 8 9 9
2 3 5 7 8 5 4 2 3 4 4 3 3 2 3 3 3 3 4 4 5 4 4 5 6 7 8 8 8 8 8 9 9 9 9 9 8 8 8 8 8 8 8 7 8 8 8 8 8
3 4 7 9 9 5 4 4 4 4 3 3 3 3 3 4 3 4 4 4 4 4 4 4 6 7 7 8 8 8 8 9 9 10 10 9 9 8 7 7 7 7 7 7 7 7 7 7 7
4 4 7 8 7 7 5 4 5 5 5 3 2 3 4 4 3 3 4 4 5 4 4 4 4 5 7 8 8 8 8 9 9 9 9 9 9 8 8 7 6 6 6 6 7 7 7 7 7
2 3 5 7 8 7 4 4 1 3 2 2 1 2 2 3 3 4 5 5 5 4 4 3 3 3 4 5 7 8 8 8 8 9 8 8 7 7 7 7 7 6 6 6 6 6 6 6 6
3 5 8 7 7 4 5 5 2 1 2 2 1 3 4 5 6 6 5 4 4 3 3 2 2 3 3 3 5 6 7 7 6 6 7 5 3 4 4 7 7 6 5 5 5 5 5 5 5
4 7 7 2 2 2 4 3 3 4 4 2 2 2 3 5 6 7 6 4 3 2 2 1 2 2 2 2 2 2 3 3 3 3 3 3 3 3 3 5 6 5 5 4 5 4 3 2 2
3 5 3 2 1 2 3 2 2 4 3 3 3 3 4 5 5 6 5 4 3 2 1 1 1 1 2 1 1 1 2 2 3 3 3 2 2 2 2 1 2 2 2 2 2 1 1 1 1
3 2 2 1 1 2 3 3 3 2 1 2 1 4 6 6 5 5 5 3 2 2 1 1 1 1 1 2 2 2 1 2 2 2 3 2 2 2 2 1 2 1 1 1 0 0 1 1 1
5 3 2 1 2 2 2 2 2 2 2 1 2 4 5 5 5 4 3 2 1 1 1 0 1 1 1 1 1 2 2 2 2 2 2 2 1 2 1 1 1 2 2 1 1 0 0 0 0
3 3 2 1 2 2 3 3 3 2 1 1 3 3 3 3 4 3 2 2 2 1 1 0 0 1 1 1 1 1 2 2 2 2 2 2 1 1 1 1 1 1 1 1 1 1 0 0 0
3 3 3 2 3 2 3 5 5 2 2 2 2 2 2 1 1 2 2 2 2 1 0 0 0 1 1 1 1 1 1 2 2 2 2 2 2 1 1 0 1 1 1 2 1 1 0 1 0
4 5 5 3 2 3 6 9 2 1 3 2 2 1 1 1 1 1 1 1 1 1 0 0 0 0 0 1 1 1 1 2 2 1 1 2 2 1 1 0 1 1 1 1 1 1 1 1 1
4 6 7 4 2 3 7 6 1 2 2 3 2 2 1 1 0 1 1 1 1 1 0 0 1 0 0 1 0 1 1 1 1 1 1 1 1 1 1 0 0 1 1 1 1 1 1 1 1
5 6 6 6 1 4 7 7 3 2 2 3 3 2 2 1 1 1 1 1 1 1 0 0 0 1 1 0 1 1 1 1 1 1 1 1 1 1 1 0 1 1 1 1 1 1 1 1 1
4 6 7 5 2 5 9 9 7 4 4 3 3 2 2 2 1 1 1 1 1 1 1 0 0 1 1 0 0 1 1 0 0 0 0 0 0 1 1 1 1 1 1 1 2 2 1 1 1
5 7 7 4 2 5 7 9 6 5 3 2 2 1 1 2 2 2 2 2 1 1 1 1 1 1 1 1 1 1 1 1 0 0 0 0 1 1 1 1 1 2 2 2 2 2 2 1 1
5 6 6 5 4 4 6 8 7 5 3 1 1 1 1 2 2 3 3 2 2 2 2 2 2 1 1 1 1 1 1 1 1 1 1 1 1 1 1 2 2 2 2 2 3 3 3 2 2
5 3 4 5 5 4 3 6 4 5 3 2 1 1 2 2 2 2 3 3 3 3 2 2 2 2 1 1 1 2 2 2 2 1 1 1 2 2 2 2 2 2 2 3 3 3 3 3 3
2 2 4 5 6 6 5 7 4 2 4 3 1 1 2 2 2 3 3 4 3 3 3 3 3 3 2 2 2 2 3 2 2 1 2 2 2 2 2 2 2 2 2 3 3 4 4 4 4
0 1 1 3 4 8 6 8 5 2 2 1 0 1 2 3 3 3 4 4 4 4 3 3 3 3 3 3 2 3 3 3 2 2 2 2 2 2 3 3 3 3 3 3 4 4 5 5 5
1 2 3 4 5 5 2 6 5 1 1 1 2 2 3 3 3 4 5 5 5 5 5 4 4 4 4 4 3 3 4 4 3 3 3 3 2 2 3 3 4 4 4 4 4 4 5 5 6
2 3 4 5 5 3 3 7 1 2 1 1 1 2 3 4 4 4 5 5 5 6 6 5 5 4 4 4 4 4 4 3 3 4 4 4 3 4 4 5 5 5 5 5 5 4 5 5 5
2 2 3 3 3 6 6 3 2 1 0 1 1 2 3 4 5 5 6 6 6 6 6 6 5 5 5 5 5 4 4 4 4 4 4 4 4 4 5 5 5 5 5 5 5 4 5 5 6
2 1 2 3 5 7 6 5 3 2 2 1 2 2 4 4 5 5 5 6 6 6 6 6 6 5 5 5 5 4 5 5 5 4 5 5 5 5 5 5 6 6 6 6 6 5 5 6 5
2 2 3 3 4 6 6 3 2 1 1 2 2 3 4 5 5 5 6 5 6 6 6 7 7 6 6 6 6 5 5 5 5 4 5 5 5 5 5 6 6 6 6 6 6 6 6 7 6
1 2 4 4 4 4 5 4 4 1 1 1 2 3 4 5 5 5 5 5 6 6 7 7 7 7 7 6 6 6 6 6 6 5 5 6 6 6 6 6 6 6 6 6 7 7 7 7 7
Wind_Direction
36 163 212 214 212 220 224 203 194 169 172 124 67 227 229 130 332 52 74 113 122 136 132 130 103 102 98 101 100 98 97 91 89 87 86 82 81 81 80 78 75 74 74 72 72 74 75 75 75
87 194 203 214 230 221 212 206 202 191 108 122 137 199 177 104 42 74 106 110 131 133 130 123 104 103 97 97 95 95 96 95 90 86 84 83 80 78 79 80 77 74 74 75 74 73 74 74 74
135 260 210 205 227 234 206 176 196 156 137 172 155 113 4 74 86 92 78 128 132 127 124 110 104 103 100 96 91 90 90 88 86 84 83 82 80 77 76 76 77 76 76 78 78 76 75 74 74
191 176 198 224 222 232 239 151 145 160 163 180 183 144 111 49 32 57 101 134 129 118 117 108 99 102 101 98 92 89 88 82 80 81 80 78 77 75 73 70 70 72 74 78 81 81 78 75 76
210 200 203 219 226 220 229 232 192 190 173 169 194 164 122 79 52 83 114 124 120 110 101 103 92 97 96 94 92 85 82 78 73 70 68 68 70 71 70 66 66 67 71 77 80 80 79 75 73
180 207 218 221 217 211 216 210 204 211 181 162 190 183 115 93 92 106 119 114 108 104 95 93 84 82 86 87 83 80 76 77 75 70 65 61 61 61 64 65 66 65 68 73 78 79 78 77 75
208 209 230 227 220 217 203 190 211 210 202 182 204 183 132 119 102 121 122 112 102 96 92 90 97 90 81 78 78 77 75 74 73 70 66 61 57 55 57 58 61 63 66 68 70 74 76 75 74
241 210 218 217 219 219 175 171 204 232 203 86 235 218 134 126 132 133 122 111 99 89 86 88 93 96 96 89 77 73 71 71 72 67 62 59 60 58 52 53 53 57 65 69 72 73 74 71 73
223 223 224 215 216 202 164 179 154 130 145 129 78 12 31 119 143 142 133 119 107 87 77 84 90 87 87 89 83 80 76 70 73 73 66 64 73 67 59 48 42 48 58 64 70 71 76 74 78
213 227 229 221 228 187 166 191 169 175 176 179 174 55 82 134 151 157 158 155 145 124 97 76 90 94 90 83 95 99 89 79 70 78 79 73 70 58 50 53 47 45 45 61 64 62 78 93 107
205 230 204 194 213 195 175 174 167 203 205 230 236 191 150 158 165 172 174 170 163 144 106 61 67 101 104 95 89 82 79 78 68 68 62 63 67 66 51 47 56 54 41 64 75 95 95 86 82
187 212 212 193 174 181 183 163 160 218 284 355 295 156 152 164 178 186 185 181 166 158 126 57 35 69 98 96 92 92 87 79 69 63 57 56 54 53 38 22 19 15 12 18 35 73 96 99 124
205 194 187 148 142 176 176 190 191 227 285 35 108 143 163 173 181 187 186 173 174 189 172 41 23 28 62 95 95 93 95 90 81 56 55 53 59 56 39 22 12 7 359 345 339 4 72 80 109
173 168 164 207 206 205 208 226 222 254 256 143 138 156 175 186 190 182 186 192 204 216 258 339 55 32 45 89 108 108 106 103 95 74 58 48 47 57 38 16 9 5 349 337 326 334 293 269 276
168 183 210 215 218 198 215 233 229 248 200 169 161 155 156 185 202 210 216 219 219 228 239 347 95 49 52 83 114 127 122 118 101 86 73 55 38 39 33 19 356 355 337 326 319 327 241 212 228
197 215 224 179 209 207 231 245 171 163 188 202 199 187 195 206 237 259 273 273 250 217 225 11 13 87 40 55 93 133 131 117 107 98 88 63 41 22 6 47 339 329 311 299 286 292 264 230 232
203 228 236 214 184 208 227 248 149 147 197 222 229 228 234 245 304 330 329 314 315 267 221 333 24 24 57 68 73 104 117 108 103 98 86 76 54 354 338 50 297 285 278 275 273 262 264 242 239
223 236 242 238 197 228 233 243 242 206 230 244 246 249 252 265 307 337 334 334 332 327 257 207 56 28 25 99 92 105 111 106 99 95 73 61 46 337 329 263 239 260 242 244 255 252 247 245 230
242 243 254 259 266 250 248 256 256 237 234 243 248 248 259 283 342 15 5 9 5 359 349 317 9 34 39 47 206 214 220 205 129 94 68 53 359 321 315 307 241 247 238 239 240 237 223 232 242
235 246 257 264 269 262 265 266 256 238 226 238 253 262 292 321 4 15 16 18 2 352 335 338 318 322 315 304 297 275 268 239 238 216 160 327 291 297 285 284 258 236 237 232 228 226 233 237 248
242 248 261 281 296 245 274 256 220 201 194 222 287 315 331 342 343 355 358 9 3 352 340 324 322 308 313 320 332 316 244 215 205 216 236 259 261 253 264 258 257 231 229 227 232 232 231 234 242
249 254 264 264 266 254 256 275 204 203 209 213 283 332 334 337 342 350 352 355 1 354 350 342 339 329 326 317 295 279 258 248 253 251 248 251 247 249 253 252 250 245 240 237 237 238 242 232 232
293 326 270 257 252 261 230 256 243 178 235 241 259 304 339 344 343 352 352 351 355 1 1 354 351 348 345 326 303 283 282 279 269 261 248 251 245 246 250 254 252 246 246 246 245 239 237 234 235
341 276 258 231 235 247 230 237 255 185 245 244 61 355 352 356 358 360 1 1 4 5 6 359 354 350 347 337 310 288 280 287 277 265 262 259 254 249 248 248 250 249 249 248 247 244 240 239 238
270 259 254 232 225 246 174 236 258 63 7 326 324 346 357 357 359 1 1 1 2 1 357 353 347 346 342 334 324 302 278 268 265 264 258 262 259 256 253 255 250 248 249 248 247 243 243 243 241
245 255 259 271 268 277 212 239 236 67 24 358 342 337 351 358 356 354 354 353 353 352 351 348 347 340 336 330 322 315 291 270 270 269 265 260 259 259 260 253 253 252 249 245 242 242 242 243 242
207 212 326 294 297 274 248 250 267 136 261 346 347 353 351 352 351 349 350 352 351 347 347 343 337 334 333 326 318 313 306 280 272 274 267 262 264 264 260 255 254 253 250 245 241 242 242 245 244
330 167 195 224 260 265 258 252 258 216 243 273 298 328 339 345 345 347 347 346 345 342 340 340 339 331 328 324 319 314 309 295 281 272 271 267 263 261 258 256 253 250 249 248 242 243 242 243 243
165 190 224 231 260 268 275 270 41 284 261 277 308 332 332 333 335 338 340 341 339 341 342 340 338 333 329 325 319 315 308 300 289 280 277 276 270 263 258 256 255 251 247 244 242 241 240 240 242
259 238 208 237 240 244 271 278 72 9 349 308 313 334 334 333 333 333 335 338 340 342 341 338 335 332 328 324 320 316 310 303 294 287 284 280 273 266 261 258 255 255 254 247 242 241 239 238 240